Benton Harbor, MI

10:43 AM EDT on August 17, 2017 (GMT -0400)
Southwest Michigan Regional

Weather History for KBEH - March, 2014

Change the Weather History Date:

Saturday, March 22, 2014

  Actual Average Record
Temperature  
Mean Temperature 32 °F -  
Max Temperature 37 °F 47 °F 82 °F (2012)
Min Temperature 26 °F 28 °F 10 °F (1989)
Degree Days  
Heating Degree Days 34    
Moisture  
Dew Point 29 °F    
Average Humidity 86    
Maximum Humidity 100    
Minimum Humidity 75    
Precipitation  
Precipitation 0.01 in - - ()
Sea Level Pressure  
Sea Level Pressure 30.10 in    
Wind  
Wind Speed 9 mph (NW)    
Max Wind Speed 14 mph    
Max Gust Speed 21 mph    
Visibility 7 miles    
Events      
Averages and records for this station are not official NWS values.
T = Trace of Precipitation, MM = Missing Value Source: NWS Daily Summary

Daily Weather History Graph

Daily Weather History Graph

Search for Another Location

Airport or City:

Trip Planner

Search our weather history database for the weather conditions in past years. The results will help you decide how hot, cold, wet, or windy it might be!

Date:

Astronomy

Mar. 22, 2014 Rise Set
Actual Time 7:45 AM EDT 8:00 PM EDT
Civil Twilight 7:17 AM EDT 8:28 PM EDT
Nautical Twilight 6:44 AM EDT 9:01 PM EDT
Astronomical Twilight 6:11 AM EDT 9:34 PM EDT
Moon 1:23 AM EDT (3/22) 11:23 AM EDT (3/22)
Length of Visible Light 13h 10m
Length of Day
12h 14m
Waning Gibbous, 65% of the Moon is Illuminated
Mar 22
Waning Gibbous
Mar 23
Last Quarter
Mar 30
New
Apr 7
First Quarter
Apr 15
Full

Hourly Weather History & Observations

Time (EDT) Temp. Windchill Dew Point Humidity Pressure Visibility Wind Dir Wind Speed Gust Speed Precip Events Conditions
12:53 AM 37.0 °F 28.9 °F 35.1 °F 93% 29.77 in 5.0 mi WNW 12.7 mph 20.7 mph 0.01 in   Overcast
1:53 AM 35.1 °F 26.9 °F 33.1 °F 92% 29.81 in 5.0 mi WNW 11.5 mph 19.6 mph N/A   Clear
2:53 AM 35.1 °F 26.9 °F 32.0 °F 89% 29.86 in 5.0 mi WNW 11.5 mph - N/A   Mostly Cloudy
3:06 AM 36.0 °F 27.5 °F 33.1 °F 89% 29.85 in 5.0 mi West 12.7 mph - N/A   Overcast
3:53 AM 35.1 °F 25.9 °F 33.1 °F 92% 29.89 in 5.0 mi WNW 13.8 mph - N/A   Overcast
4:53 AM 35.1 °F 27.4 °F 32.0 °F 89% 29.92 in 10.0 mi WNW 10.4 mph 18.4 mph N/A   Overcast
5:53 AM 33.1 °F 26.9 °F 32.0 °F 96% 29.97 in 5.0 mi NW 6.9 mph - N/A   Overcast
6:22 AM 33.1 °F 28.7 °F 32.0 °F 96% 29.97 in 5.0 mi Variable 4.6 mph - N/A   Overcast
6:53 AM 33.1 °F 26.1 °F 32.0 °F 96% 30.01 in 5.0 mi NW 8.1 mph - N/A   Overcast
7:10 AM 33.1 °F 27.7 °F 32.0 °F 96% 30.00 in 5.0 mi NW 5.8 mph - N/A   Overcast
7:18 AM 33.1 °F 27.7 °F 32.0 °F 96% 30.00 in 5.0 mi NNW 5.8 mph - N/A   Overcast
7:53 AM 32.0 °F 28.7 °F 30.9 °F 96% 30.03 in 4.0 mi Variable 3.5 mph - N/A   Overcast
8:12 AM 32.0 °F 26.4 °F 30.9 °F 96% 30.03 in 4.0 mi Variable 5.8 mph - N/A   Overcast
8:53 AM 32.0 °F 28.7 °F 32.0 °F 100% 30.06 in 4.0 mi Variable 3.5 mph - N/A   Overcast
9:22 AM 33.1 °F 26.9 °F 30.9 °F 92% 30.06 in 5.0 mi Variable 6.9 mph - N/A   Overcast
9:53 AM 33.1 °F 26.9 °F 30.0 °F 89% 30.10 in 5.0 mi NW 6.9 mph - N/A   Overcast
10:53 AM 34.0 °F 26.6 °F 28.9 °F 82% 30.15 in 6.0 mi NW 9.2 mph - N/A   Haze
11:48 AM 33.8 °F 27.7 °F 28.4 °F 81% 30.14 in 6.0 mi Variable 6.9 mph - N/A   Haze
11:53 AM 35.1 °F 29.3 °F 30.0 °F 82% 30.16 in 6.0 mi Variable 6.9 mph - N/A   Haze
12:14 PM 34.0 °F 26.6 °F 28.9 °F 82% 30.15 in 6.0 mi NW 9.2 mph - N/A   Haze
12:53 PM 34.0 °F 29.8 °F 30.0 °F 85% 30.17 in 5.0 mi WNW 4.6 mph - N/A   Overcast
1:53 PM 36.0 °F 29.6 °F 30.9 °F 82% 30.18 in 10.0 mi West 8.1 mph - N/A   Overcast
2:53 PM 36.0 °F 28.0 °F 30.9 °F 82% 30.18 in 10.0 mi WNW 11.5 mph 17.3 mph N/A   Overcast
3:04 PM 34.0 °F 26.6 °F 30.0 °F 85% 30.16 in 10.0 mi North 9.2 mph 18.4 mph N/A   Overcast
3:35 PM 33.1 °F 24.4 °F 28.0 °F 82% 30.16 in 10.0 mi North 11.5 mph 17.3 mph N/A   Overcast
3:53 PM 33.1 °F 26.9 °F 27.0 °F 78% 30.18 in 10.0 mi NNW 6.9 mph - N/A   Overcast
4:53 PM 32.0 °F 26.4 °F 27.0 °F 82% 30.20 in 10.0 mi Variable 5.8 mph - N/A   Overcast
5:53 PM 30.0 °F 25.2 °F 24.1 °F 79% 30.21 in 10.0 mi Variable 4.6 mph - N/A   Overcast
6:53 PM 28.9 °F 22.8 °F 24.1 °F 82% 30.23 in 10.0 mi Variable 5.8 mph - N/A   Mostly Cloudy
7:53 PM 28.0 °F - 23.0 °F 81% 30.25 in 10.0 mi North - - N/A   Mostly Cloudy
8:02 PM 28.0 °F 22.8 °F 23.0 °F 81% 30.22 in 10.0 mi Variable 4.6 mph - N/A   Mostly Cloudy
8:10 PM 28.0 °F 24.2 °F 23.0 °F 81% 30.23 in 10.0 mi Variable 3.5 mph - N/A   Mostly Cloudy
8:21 PM 28.0 °F 22.8 °F 23.0 °F 81% 30.23 in 10.0 mi Variable 4.6 mph - N/A   Overcast
8:53 PM 28.0 °F 20.8 °F 21.9 °F 78% 30.27 in 10.0 mi Variable 6.9 mph - N/A   Overcast
9:53 PM 27.0 °F 20.5 °F 21.0 °F 78% 30.28 in 10.0 mi Variable 5.8 mph - N/A   Partly Cloudy
10:53 PM 26.1 °F 21.9 °F 19.9 °F 78% 30.30 in 10.0 mi Variable 3.5 mph - N/A   Clear
11:53 PM 26.1 °F 20.5 °F 19.0 °F 75% 30.30 in 10.0 mi Variable 4.6 mph - N/A   Clear